Terug naar catalogus

STARLINK-32675

ActiefCommunicatieVLEO
NORAD 62208·PAYLOAD·🇺🇸 United States

Gelanceerd Dec 4, 2024 vanaf Cape Canaveral Space Force Station

Loading…

Volgende Passages (komende 24 uur)

TLE

VersSource: CelesTrak SupGP

Epoch: Sep 14, 2026, 20:38 UTC

1 62208C 24229S   26257.86020833 -.00005418  00000+0 -19622-3 0  2578
2 62208  43.0027 282.3431 0001771 272.9549  63.7035 15.27581203    12

Volg STARLINK-32675 in realtime met AllMySat

Download on the App Store